sat.trackr.live / text

‹ back to catalog

STARLINK-34407

NORAD 64347 · 2025-126D

PAYLOAD ACTIVE UNKNOWN

§ Identity

Operator
Country
US
Launch date
2025-06-13
Launch site
AFWTR
Launch vehicle
Mass (kg)
RCS (m²)

Purposes: comms

External: N2YO · Heavens-Above · Gunter

§ Orbital elements

Epoch: 2026-09-20T09:41:07.790496Z

Period
94.14 min
Inclination
70.0017°
Eccentricity
0.0002850
Mean motion
15.29591579 rev/d
Perigee alt
475.1 km
Apogee alt
479.0 km
Semi-major
6,855.2 km
B*
7.9551e-4
RAAN
261.2987°
Arg perigee
259.8786°
Mean anomaly
100.2068°
Rev number
6,990

§ Raw data

STARLINK-344071 64347U 25126D   26263.40356239  .00022817  00000+0  79551-3 0  99902 64347  70.0017 261.2987 0002850 259.8786 100.2068 15.29591579 69900

JSON: /api/v1/satellites/64347 · /tle

For live sub-satellite position, see the globe view (requires WebGL).

§ Visibility from observer

Set your observer location to see the next 7 days of passes ≥ 10°. The values pass through the URL so the page stays shareable.

No JS? Fill the form by hand. The geolocation button needs JavaScript.